PLI204 SPQU-SPJC

Flight info

Callsign PLI204
Flight time 1h 30m
Altitude 36000
Route VUPKO UT323 SCO
Aircraft B721/M-SDFGHRWY/C

Departure

Time 2026-05-04 23:43
Airport Rodríguez Ballón International Airport (SPQU)

Arrival

Time 2026-05-05 01:13
Airport Jorge Chávez International Airport (SPJC)
Time Latitude Longitude Altitude Speed Heading
2026-05-04 23:22 -16.34391 -71.56719 8347 ft 0 kts 218°
2026-05-04 23:31 -16.34383 -71.56709 8347 ft 2 kts 236°
2026-05-04 23:31 -16.34373 -71.56696 8347 ft 2 kts 229°
2026-05-04 23:31 -16.34360 -71.56688 8347 ft 1 kts 165°
2026-05-04 23:32 -16.34352 -71.56692 8347 ft 2 kts 130°
2026-05-04 23:32 -16.34348 -71.56706 8347 ft 2 kts 82°
2026-05-04 23:32 -16.34349 -71.56723 8347 ft 2 kts 94°
2026-05-04 23:32 -16.34349 -71.56738 8347 ft 2 kts 90°
2026-05-04 23:33 -16.34348 -71.56754 8347 ft 2 kts 92°
2026-05-04 23:33 -16.34348 -71.56760 8347 ft 0 kts 92°
2026-05-04 23:35 -16.34348 -71.56758 8347 ft 0 kts 92°
2026-05-04 23:36 -16.34348 -71.56756 8347 ft 1 kts 92°
2026-05-04 23:36 -16.34349 -71.56740 8347 ft 3 kts 92°
2026-05-04 23:36 -16.34350 -71.56706 8347 ft 5 kts 94°
2026-05-04 23:37 -16.34354 -71.56656 8347 ft 7 kts 89°
2026-05-04 23:37 -16.34356 -71.56586 8347 ft 11 kts 94°
2026-05-04 23:37 -16.34363 -71.56480 8347 ft 16 kts 95°
2026-05-04 23:37 -16.34368 -71.56349 8359 ft 8 kts 93°
2026-05-04 23:38 -16.34370 -71.56323 8362 ft 0 kts 94°
2026-05-04 23:38 -16.34373 -71.56271 8369 ft 10 kts 94°
2026-05-04 23:38 -16.34377 -71.56197 8378 ft 10 kts 92°
2026-05-04 23:39 -16.34376 -71.56073 8386 ft 15 kts 68°
2026-05-04 23:39 -16.34333 -71.56001 8392 ft 17 kts 57°
2026-05-04 23:39 -16.34281 -71.55917 8406 ft 8 kts 56°
2026-05-04 23:39 -16.34259 -71.55884 8411 ft 5 kts 58°
2026-05-04 23:40 -16.34212 -71.55798 8414 ft 21 kts 61°
2026-05-04 23:40 -16.34163 -71.55723 8416 ft 9 kts 44°
2026-05-04 23:40 -16.34131 -71.55740 8416 ft 8 kts 288°
2026-05-04 23:40 -16.34129 -71.55759 8416 ft 0 kts 274°
2026-05-04 23:41 -16.34117 -71.55908 8419 ft 39 kts 274°
2026-05-04 23:41 -16.34094 -71.56387 8413 ft 94 kts 274°
2026-05-04 23:42 -16.34046 -71.57277 8357 ft 146 kts 273°
2026-05-04 23:42 -16.34001 -71.58414 8558 ft 151 kts 268°
2026-05-04 23:42 -16.34085 -71.59512 8803 ft 150 kts 269°
2026-05-04 23:42 -16.34116 -71.60638 8977 ft 157 kts 265°
2026-05-04 23:43 -16.34401 -71.61781 9029 ft 172 kts 244°
2026-05-04 23:43 -16.34824 -71.62987 9268 ft 170 kts 256°
2026-05-04 23:43 -16.35119 -71.64218 9509 ft 171 kts 258°
2026-05-04 23:43 -16.35424 -71.65424 9812 ft 169 kts 254°
2026-05-04 23:44 -16.35656 -71.67105 9971 ft 179 kts 265°
2026-05-04 23:44 -16.35721 -71.68011 10042 ft 184 kts 273°
2026-05-04 23:44 -16.35488 -71.69327 10325 ft 176 kts 277°
2026-05-04 23:44 -16.35375 -71.70577 10672 ft 171 kts 278°
2026-05-04 23:45 -16.35192 -71.71883 10694 ft 184 kts 276°
2026-05-04 23:45 -16.35089 -71.73305 10671 ft 204 kts 274°
2026-05-04 23:45 -16.35004 -71.74831 10971 ft 206 kts 274°
2026-05-04 23:45 -16.34928 -71.76264 11693 ft 183 kts 274°
2026-05-04 23:46 -16.34858 -71.77490 12378 ft 159 kts 274°
2026-05-04 23:46 -16.34788 -71.78660 12592 ft 161 kts 274°
2026-05-04 23:46 -16.34718 -71.79860 12760 ft 165 kts 274°
2026-05-04 23:46 -16.34750 -71.81059 12972 ft 165 kts 255°
2026-05-04 23:47 -16.34957 -71.82264 13131 ft 167 kts 252°
2026-05-04 23:47 -16.35348 -71.83861 13407 ft 167 kts 252°
2026-05-04 23:47 -16.35543 -71.84650 13520 ft 168 kts 254°
2026-05-04 23:47 -16.35830 -71.85857 13687 ft 170 kts 259°
2026-05-04 23:48 -16.36080 -71.87086 13823 ft 174 kts 258°
2026-05-04 23:48 -16.36306 -71.88384 13925 ft 181 kts 263°
2026-05-04 23:48 -16.36473 -71.89694 14096 ft 183 kts 261°
2026-05-04 23:48 -16.36596 -71.91055 14271 ft 187 kts 267°
2026-05-04 23:49 -16.36669 -71.92454 14419 ft 192 kts 269°
2026-05-04 23:49 -16.36694 -71.93890 14603 ft 195 kts 269°
2026-05-04 23:49 -16.36673 -71.95841 14898 ft 197 kts 270°
2026-05-04 23:49 -16.36620 -71.97282 15206 ft 192 kts 270°
2026-05-04 23:50 -16.36566 -71.98227 15344 ft 194 kts 269°
2026-05-04 23:50 -16.36497 -71.99676 15543 ft 200 kts 268°
2026-05-04 23:50 -16.36458 -72.01149 15806 ft 206 kts 266°
2026-05-04 23:50 -16.36459 -72.02672 16140 ft 210 kts 265°
2026-05-04 23:51 -16.36511 -72.04263 16385 ft 222 kts 263°
2026-05-04 23:51 -16.36716 -72.06493 16689 ft 234 kts 263°
2026-05-04 23:51 -16.36839 -72.07620 16926 ft 237 kts 264°
2026-05-04 23:51 -16.37039 -72.09387 17258 ft 244 kts 264°
2026-05-04 23:52 -16.37234 -72.11198 17603 ft 250 kts 265°
2026-05-04 23:52 -16.37378 -72.13036 17937 ft 255 kts 271°
2026-05-04 23:52 -16.37351 -72.14934 18275 ft 262 kts 274°
2026-05-04 23:52 -16.37245 -72.16849 18606 ft 268 kts 276°
2026-05-04 23:53 -16.37073 -72.18839 18942 ft 275 kts 277°
2026-05-04 23:53 -16.36844 -72.20902 19281 ft 281 kts 278°
2026-05-04 23:53 -16.36576 -72.22995 19615 ft 288 kts 278°
2026-05-04 23:53 -16.36288 -72.25127 19934 ft 297 kts 278°
2026-05-04 23:54 -16.35999 -72.27352 20274 ft 308 kts 277°
2026-05-04 23:54 -16.35729 -72.29652 20611 ft 319 kts 276°
2026-05-04 23:54 -16.35483 -72.32025 20947 ft 329 kts 276°
2026-05-04 23:54 -16.35258 -72.34493 21283 ft 339 kts 275°
2026-05-04 23:55 -16.35052 -72.37006 21615 ft 349 kts 274°
2026-05-04 23:55 -16.34856 -72.39589 21945 ft 359 kts 274°
2026-05-04 23:55 -16.34457 -72.44988 22609 ft 376 kts 274°
2026-05-04 23:56 -16.34241 -72.47783 22940 ft 383 kts 275°
2026-05-04 23:56 -16.33664 -72.50536 23264 ft 389 kts 290°
2026-05-04 23:56 -16.32512 -72.53110 23590 ft 395 kts 299°
2026-05-04 23:56 -16.31042 -72.55582 23917 ft 401 kts 304°
2026-05-04 23:57 -16.29410 -72.58003 24243 ft 407 kts 306°
2026-05-04 23:57 -16.27724 -72.60422 24568 ft 413 kts 306°
2026-05-04 23:57 -16.26002 -72.62883 24895 ft 419 kts 306°
2026-05-04 23:57 -16.24274 -72.65369 25219 ft 424 kts 306°
2026-05-04 23:58 -16.22508 -72.67930 25547 ft 429 kts 306°
2026-05-04 23:58 -16.20754 -72.70489 25871 ft 433 kts 306°
2026-05-04 23:58 -16.18991 -72.73069 26193 ft 437 kts 305°
2026-05-04 23:58 -16.17207 -72.75687 26517 ft 441 kts 305°
2026-05-04 23:59 -16.15398 -72.78339 26843 ft 444 kts 305°
2026-05-04 23:59 -16.13571 -72.81016 27168 ft 447 kts 305°
2026-05-04 23:59 -16.11722 -72.83718 27495 ft 450 kts 306°
2026-05-04 23:59 -16.09886 -72.86396 27818 ft 452 kts 306°
2026-05-05 00:00 -16.08041 -72.89082 28140 ft 454 kts 306°
2026-05-05 00:00 -16.06787 -72.90906 28357 ft 455 kts 306°
2026-05-05 00:00 -16.04295 -72.94524 28788 ft 458 kts 306°
2026-05-05 00:00 -16.02415 -72.97247 29110 ft 459 kts 306°
2026-05-05 00:01 -16.00545 -72.99954 29430 ft 460 kts 306°
2026-05-05 00:01 -15.98627 -73.02729 29758 ft 461 kts 306°
2026-05-05 00:01 -15.96738 -73.05461 30079 ft 461 kts 306°
2026-05-05 00:01 -15.94206 -73.09122 30510 ft 461 kts 306°
2026-05-05 00:02 -15.92305 -73.11870 30832 ft 461 kts 306°
2026-05-05 00:02 -15.91021 -73.13726 31050 ft 461 kts 306°
2026-05-05 00:02 -15.89147 -73.16434 31368 ft 461 kts 306°
2026-05-05 00:02 -15.87238 -73.19190 31692 ft 460 kts 306°
2026-05-05 00:03 -15.85368 -73.21891 32010 ft 459 kts 306°
2026-05-05 00:03 -15.83462 -73.24641 32333 ft 458 kts 306°
2026-05-05 00:03 -15.81581 -73.27355 32654 ft 457 kts 306°
2026-05-05 00:03 -15.79088 -73.30949 33079 ft 455 kts 306°
2026-05-05 00:04 -15.77834 -73.32756 33293 ft 454 kts 306°
2026-05-05 00:04 -15.75953 -73.35467 33616 ft 452 kts 306°
2026-05-05 00:04 -15.74095 -73.38142 33935 ft 450 kts 306°
2026-05-05 00:04 -15.72256 -73.40789 34252 ft 448 kts 306°
2026-05-05 00:05 -15.70400 -73.43460 34574 ft 445 kts 306°
2026-05-05 00:05 -15.68581 -73.46077 34891 ft 442 kts 306°
2026-05-05 00:05 -15.66135 -73.49596 35319 ft 438 kts 306°
2026-05-05 00:05 -15.64944 -73.51308 35529 ft 436 kts 306°
2026-05-05 00:06 -15.63145 -73.53893 35847 ft 433 kts 306°
2026-05-05 00:06 -15.61377 -73.56432 36153 ft 429 kts 306°
2026-05-05 00:06 -15.59611 -73.58968 36287 ft 428 kts 306°
2026-05-05 00:07 -15.56081 -73.64036 36350 ft 425 kts 306°
2026-05-05 00:07 -15.52580 -73.69057 36346 ft 424 kts 306°
2026-05-05 00:08 -15.48491 -73.74918 36332 ft 423 kts 306°
2026-05-05 00:08 -15.45563 -73.79111 36324 ft 422 kts 306°
2026-05-05 00:09 -15.42032 -73.84165 36319 ft 421 kts 306°
2026-05-05 00:09 -15.38537 -73.89165 36316 ft 420 kts 306°
2026-05-05 00:10 -15.35056 -73.94141 36316 ft 419 kts 306°
2026-05-05 00:10 -15.31575 -73.99114 36316 ft 418 kts 306°
2026-05-05 00:11 -15.28099 -74.04077 36316 ft 417 kts 306°
2026-05-05 00:11 -15.24616 -74.09046 36316 ft 416 kts 306°
2026-05-05 00:12 -15.21112 -74.14043 36316 ft 415 kts 306°
2026-05-05 00:12 -15.17644 -74.18984 36317 ft 414 kts 306°
2026-05-05 00:13 -15.14155 -74.23953 36317 ft 414 kts 306°
2026-05-05 00:13 -15.10717 -74.28845 36317 ft 414 kts 306°
2026-05-05 00:14 -15.07257 -74.33765 36318 ft 416 kts 306°
2026-05-05 00:14 -15.03801 -74.38683 36318 ft 419 kts 306°
2026-05-05 00:15 -15.00313 -74.43647 36318 ft 422 kts 306°
2026-05-05 00:15 -14.96809 -74.48630 36318 ft 424 kts 306°
2026-05-05 00:16 -14.93292 -74.53627 36318 ft 427 kts 306°
2026-05-05 00:16 -14.89761 -74.58641 36318 ft 430 kts 306°
2026-05-05 00:17 -14.86176 -74.63729 36318 ft 432 kts 306°
2026-05-05 00:17 -14.82583 -74.68825 36259 ft 437 kts 306°
2026-05-05 00:18 -14.78960 -74.73959 36173 ft 441 kts 306°
2026-05-05 00:18 -14.75256 -74.79205 36095 ft 446 kts 306°
2026-05-05 00:19 -14.71520 -74.84493 36019 ft 450 kts 306°
2026-05-05 00:19 -14.67759 -74.89812 36031 ft 452 kts 306°
2026-05-05 00:20 -14.63958 -74.95185 36095 ft 453 kts 306°
2026-05-05 00:20 -14.60207 -75.00484 36100 ft 455 kts 306°
2026-05-05 00:21 -14.56367 -75.05904 36062 ft 458 kts 306°
2026-05-05 00:21 -14.52533 -75.11314 35982 ft 462 kts 306°
2026-05-05 00:22 -14.48641 -75.16800 35953 ft 465 kts 306°
2026-05-05 00:22 -14.44738 -75.22298 35966 ft 466 kts 306°
2026-05-05 00:23 -14.40820 -75.27814 35967 ft 468 kts 306°
2026-05-05 00:23 -14.36907 -75.33318 35966 ft 470 kts 306°
2026-05-05 00:24 -14.32963 -75.38863 35966 ft 471 kts 306°
2026-05-05 00:24 -14.29001 -75.44430 35966 ft 472 kts 306°
2026-05-05 00:25 -14.25027 -75.50010 35966 ft 474 kts 306°
2026-05-05 00:25 -14.21028 -75.55620 35966 ft 475 kts 306°
2026-05-05 00:26 -14.17039 -75.61213 35967 ft 476 kts 306°
2026-05-05 00:26 -14.13133 -75.66753 35970 ft 476 kts 307°
2026-05-05 00:27 -14.09154 -75.72403 35971 ft 475 kts 308°
2026-05-05 00:27 -14.05177 -75.77936 35970 ft 471 kts 308°
2026-05-05 00:28 -14.01193 -75.83389 35969 ft 464 kts 308°
2026-05-05 00:28 -13.97282 -75.88759 35963 ft 455 kts 308°
2026-05-05 00:29 -13.93502 -75.94048 35962 ft 447 kts 308°
2026-05-05 00:29 -13.91642 -75.96673 35931 ft 434 kts 307°
2026-05-05 00:29 -13.89876 -75.99165 35562 ft 429 kts 307°
2026-05-05 00:29 -13.88232 -76.01475 35118 ft 427 kts 308°
2026-05-05 00:30 -13.86458 -76.03961 34637 ft 424 kts 308°
2026-05-05 00:30 -13.84687 -76.06431 34157 ft 422 kts 308°
2026-05-05 00:30 -13.82902 -76.08916 33669 ft 420 kts 308°
2026-05-05 00:30 -13.81131 -76.11377 33182 ft 419 kts 308°
2026-05-05 00:31 -13.79369 -76.13854 32692 ft 418 kts 308°
2026-05-05 00:31 -13.77643 -76.16280 32212 ft 418 kts 308°
2026-05-05 00:31 -13.75878 -76.18741 31724 ft 417 kts 309°
2026-05-05 00:31 -13.73987 -76.21042 31239 ft 416 kts 315°
2026-05-05 00:32 -13.71806 -76.23103 30750 ft 415 kts 322°
2026-05-05 00:32 -13.69416 -76.24886 30263 ft 415 kts 327°
2026-05-05 00:32 -13.66892 -76.26479 29775 ft 416 kts 330°
2026-05-05 00:32 -13.64304 -76.27964 29290 ft 417 kts 332°
2026-05-05 00:33 -13.61696 -76.29410 28807 ft 419 kts 332°
2026-05-05 00:33 -13.59087 -76.30868 28324 ft 420 kts 331°
2026-05-05 00:33 -13.56464 -76.32379 27838 ft 422 kts 330°
2026-05-05 00:33 -13.53906 -76.33914 27363 ft 424 kts 329°
2026-05-05 00:34 -13.51311 -76.35534 26877 ft 425 kts 328°
2026-05-05 00:34 -13.48725 -76.37195 26391 ft 427 kts 327°
2026-05-05 00:34 -13.46183 -76.38856 25912 ft 428 kts 327°
2026-05-05 00:34 -13.43595 -76.40558 25425 ft 430 kts 327°
2026-05-05 00:35 -13.40994 -76.42266 24924 ft 432 kts 327°
2026-05-05 00:35 -13.38411 -76.43952 24416 ft 433 kts 327°
2026-05-05 00:35 -13.35817 -76.45631 23908 ft 432 kts 328°
2026-05-05 00:35 -13.33198 -76.47315 23393 ft 431 kts 328°
2026-05-05 00:36 -13.30611 -76.48968 22886 ft 430 kts 328°
2026-05-05 00:36 -13.27982 -76.50642 22369 ft 429 kts 328°
2026-05-05 00:36 -13.25383 -76.52293 21858 ft 428 kts 328°
2026-05-05 00:36 -13.22800 -76.53933 21348 ft 427 kts 328°
2026-05-05 00:37 -13.20226 -76.55568 20837 ft 424 kts 328°
2026-05-05 00:37 -13.17644 -76.57207 20373 ft 421 kts 328°
2026-05-05 00:37 -13.15114 -76.58816 20011 ft 415 kts 328°
2026-05-05 00:37 -13.12625 -76.60399 19679 ft 409 kts 328°
2026-05-05 00:38 -13.10148 -76.61974 19384 ft 403 kts 328°
2026-05-05 00:38 -13.07737 -76.63508 19127 ft 396 kts 328°
2026-05-05 00:38 -13.05409 -76.64989 18874 ft 389 kts 328°
2026-05-05 00:38 -13.03018 -76.66509 18610 ft 383 kts 328°
2026-05-05 00:39 -13.00696 -76.67985 18350 ft 377 kts 328°
2026-05-05 00:39 -12.98432 -76.69423 18092 ft 372 kts 328°
2026-05-05 00:39 -12.96204 -76.70837 17836 ft 367 kts 328°
2026-05-05 00:39 -12.93994 -76.72240 17578 ft 362 kts 328°
2026-05-05 00:40 -12.91806 -76.73629 17319 ft 358 kts 328°
2026-05-05 00:40 -12.89649 -76.74998 17061 ft 353 kts 328°
2026-05-05 00:40 -12.87504 -76.76358 16803 ft 350 kts 328°
2026-05-05 00:40 -12.85383 -76.77703 16544 ft 346 kts 328°
2026-05-05 00:41 -12.83297 -76.79025 16288 ft 343 kts 328°
2026-05-05 00:41 -12.81211 -76.80347 16029 ft 340 kts 328°
2026-05-05 00:41 -12.79161 -76.81647 15772 ft 337 kts 328°
2026-05-05 00:41 -12.77131 -76.82932 15517 ft 334 kts 328°
2026-05-05 00:42 -12.75117 -76.84208 15261 ft 332 kts 328°
2026-05-05 00:42 -12.73101 -76.85484 15033 ft 329 kts 328°
2026-05-05 00:42 -12.71143 -76.86724 14978 ft 320 kts 328°
2026-05-05 00:42 -12.69228 -76.87936 14955 ft 310 kts 328°
2026-05-05 00:43 -12.67344 -76.89129 14953 ft 304 kts 328°
2026-05-05 00:43 -12.65523 -76.90281 14957 ft 297 kts 328°
2026-05-05 00:43 -12.63746 -76.91406 14961 ft 294 kts 328°
2026-05-05 00:43 -12.61942 -76.92546 14964 ft 292 kts 328°
2026-05-05 00:44 -12.60178 -76.93662 14965 ft 291 kts 328°
2026-05-05 00:44 -12.58409 -76.94767 14969 ft 289 kts 330°
2026-05-05 00:44 -12.56604 -76.95748 15010 ft 285 kts 333°
2026-05-05 00:44 -12.54787 -76.96697 15007 ft 284 kts 333°
2026-05-05 00:45 -12.52992 -76.97611 14972 ft 284 kts 334°
2026-05-05 00:45 -12.51155 -76.98531 14848 ft 288 kts 334°
2026-05-05 00:45 -12.49304 -76.99445 14678 ft 291 kts 334°
2026-05-05 00:45 -12.47445 -77.00356 14464 ft 294 kts 334°
2026-05-05 00:46 -12.44918 -77.01588 14128 ft 299 kts 334°
2026-05-05 00:46 -12.43637 -77.02213 13961 ft 301 kts 334°
2026-05-05 00:46 -12.41720 -77.03148 13708 ft 300 kts 334°
2026-05-05 00:46 -12.39817 -77.04081 13455 ft 299 kts 334°
2026-05-05 00:47 -12.37914 -77.05017 13201 ft 298 kts 334°
2026-05-05 00:47 -12.36010 -77.05958 12946 ft 297 kts 334°
2026-05-05 00:47 -12.34106 -77.06903 12691 ft 297 kts 334°
2026-05-05 00:47 -12.32174 -77.07864 12431 ft 296 kts 334°
2026-05-05 00:48 -12.30277 -77.08810 12171 ft 293 kts 334°
2026-05-05 00:48 -12.28426 -77.09734 11902 ft 281 kts 334°
2026-05-05 00:48 -12.26664 -77.10614 11644 ft 273 kts 334°
2026-05-05 00:48 -12.24911 -77.11489 11391 ft 274 kts 334°
2026-05-05 00:49 -12.23172 -77.12356 11139 ft 275 kts 334°
2026-05-05 00:49 -12.21409 -77.13233 10885 ft 276 kts 334°
2026-05-05 00:49 -12.19668 -77.14099 10634 ft 276 kts 334°
2026-05-05 00:49 -12.17959 -77.14947 10364 ft 262 kts 334°
2026-05-05 00:50 -12.16331 -77.15756 10101 ft 251 kts 334°
2026-05-05 00:50 -12.14741 -77.16543 9846 ft 247 kts 334°
2026-05-05 00:50 -12.13178 -77.17316 9598 ft 249 kts 334°
2026-05-05 00:50 -12.11582 -77.18105 9349 ft 252 kts 334°
2026-05-05 00:51 -12.09964 -77.18907 9133 ft 252 kts 334°
2026-05-05 00:51 -12.08357 -77.19707 8939 ft 252 kts 334°
2026-05-05 00:51 -12.06744 -77.20512 8754 ft 252 kts 334°
2026-05-05 00:51 -12.05131 -77.21317 8575 ft 251 kts 334°
2026-05-05 00:52 -12.03519 -77.22122 8399 ft 251 kts 334°
2026-05-05 00:52 -12.01930 -77.22926 8226 ft 250 kts 333°
2026-05-05 00:52 -12.00366 -77.23751 8044 ft 247 kts 332°
2026-05-05 00:52 -11.98822 -77.24570 7625 ft 244 kts 332°
2026-05-05 00:53 -11.97307 -77.25375 7211 ft 243 kts 332°
2026-05-05 00:53 -11.95781 -77.26189 6790 ft 241 kts 332°
2026-05-05 00:53 -11.94290 -77.26977 6483 ft 235 kts 335°
2026-05-05 00:53 -11.92699 -77.27229 6028 ft 230 kts
2026-05-05 00:54 -11.91104 -77.26932 5489 ft 229 kts
2026-05-05 00:54 -11.89544 -77.27210 4936 ft 227 kts 340°
2026-05-05 00:54 -11.88063 -77.27832 4423 ft 226 kts 335°
2026-05-05 00:54 -11.86608 -77.28520 3914 ft 224 kts 334°
2026-05-05 00:55 -11.85169 -77.29217 3418 ft 223 kts 334°
2026-05-05 00:55 -11.83793 -77.29884 3144 ft 212 kts 334°
2026-05-05 00:55 -11.82477 -77.30520 2901 ft 202 kts 334°
2026-05-05 00:55 -11.81092 -77.30753 2398 ft 205 kts 12°
2026-05-05 00:56 -11.79933 -77.30002 2171 ft 192 kts 50°
2026-05-05 00:56 -11.79206 -77.28921 2104 ft 174 kts 58°
2026-05-05 00:56 -11.78644 -77.27911 2084 ft 151 kts 69°
2026-05-05 00:56 -11.78764 -77.26923 2011 ft 138 kts 121°
2026-05-05 00:57 -11.79272 -77.26095 2049 ft 135 kts 125°
2026-05-05 00:57 -11.79921 -77.25387 2050 ft 134 kts 141°
2026-05-05 00:57 -11.80610 -77.24736 2057 ft 134 kts 135°
2026-05-05 00:57 -11.81262 -77.24044 2080 ft 136 kts 135°
2026-05-05 00:58 -11.81964 -77.23292 2103 ft 149 kts 135°
2026-05-05 00:58 -11.82718 -77.22485 2131 ft 157 kts 135°
2026-05-05 00:58 -11.83628 -77.21839 2152 ft 160 kts 152°
2026-05-05 00:58 -11.84624 -77.21293 2154 ft 158 kts 153°
2026-05-05 00:59 -11.85617 -77.20767 2150 ft 156 kts 154°
2026-05-05 00:59 -11.86594 -77.20265 2137 ft 155 kts 155°
2026-05-05 00:59 -11.87573 -77.19777 2111 ft 153 kts 155°
2026-05-05 00:59 -11.88554 -77.19296 2096 ft 152 kts 156°
2026-05-05 01:00 -11.89501 -77.18838 2131 ft 146 kts 156°
2026-05-05 01:00 -11.90425 -77.18394 2129 ft 144 kts 156°
2026-05-05 01:00 -11.91338 -77.17955 2127 ft 140 kts 156°
2026-05-05 01:00 -11.92228 -77.17524 2228 ft 141 kts 156°
2026-05-05 01:01 -11.93156 -77.17094 2238 ft 147 kts 158°
2026-05-05 01:01 -11.94093 -77.16694 2289 ft 143 kts 161°
2026-05-05 01:01 -11.95035 -77.16308 2146 ft 145 kts 156°
2026-05-05 01:01 -11.95969 -77.15823 1858 ft 151 kts 153°
2026-05-05 01:02 -11.96915 -77.15305 1582 ft 154 kts 154°
2026-05-05 01:02 -11.97891 -77.14786 1219 ft 163 kts 154°
2026-05-05 01:02 -11.98954 -77.14234 591 ft 177 kts 154°
2026-05-05 01:02 -12.00055 -77.13669 298 ft 171 kts 156°
2026-05-05 01:03 -12.01120 -77.13158 117 ft 169 kts 155°
2026-05-05 01:03 -12.02155 -77.12637 110 ft 147 kts 154°
2026-05-05 01:03 -12.03063 -77.12193 245 ft 145 kts 156°
2026-05-05 01:03 -12.04065 -77.11728 448 ft 168 kts 164°
2026-05-05 01:04 -12.05204 -77.11887 999 ft 175 kts 208°
2026-05-05 01:04 -12.06689 -77.13975 2095 ft 187 kts 265°
2026-05-05 01:04 -12.06451 -77.15299 2474 ft 188 kts 293°
2026-05-05 01:05 -12.05586 -77.16344 2691 ft 196 kts 322°
2026-05-05 01:05 -12.04342 -77.17014 2930 ft 205 kts 335°
2026-05-05 01:05 -12.02947 -77.17593 2955 ft 222 kts 340°
2026-05-05 01:05 -12.01483 -77.18059 3143 ft 218 kts 345°
2026-05-05 01:06 -12.00045 -77.18676 2798 ft 229 kts 327°
2026-05-05 01:06 -11.98686 -77.19562 2772 ft 226 kts 326°
2026-05-05 01:06 -11.97344 -77.20449 2729 ft 223 kts 327°
2026-05-05 01:06 -11.96032 -77.21298 2586 ft 219 kts 326°
2026-05-05 01:07 -11.94753 -77.22160 2324 ft 215 kts 327°
2026-05-05 01:07 -11.93474 -77.22932 2133 ft 209 kts 329°
2026-05-05 01:07 -11.92188 -77.23689 1813 ft 209 kts 329°
2026-05-05 01:07 -11.90879 -77.24261 1658 ft 198 kts 353°
2026-05-05 01:08 -11.89544 -77.23992 1552 ft 187 kts 31°
2026-05-05 01:08 -11.88883 -77.22960 1559 ft 168 kts 85°
2026-05-05 01:08 -11.89184 -77.21855 1516 ft 159 kts 122°
2026-05-05 01:08 -11.89788 -77.20871 1433 ft 158 kts 127°
2026-05-05 01:09 -11.90466 -77.20007 1412 ft 152 kts 130°
2026-05-05 01:09 -11.91158 -77.19196 1434 ft 144 kts 135°
2026-05-05 01:09 -11.91868 -77.18470 1396 ft 144 kts 137°
2026-05-05 01:09 -11.92615 -77.17773 1364 ft 144 kts 140°
2026-05-05 01:10 -11.93405 -77.17110 1313 ft 144 kts 143°
2026-05-05 01:10 -11.94225 -77.16523 1236 ft 143 kts 152°
2026-05-05 01:10 -11.95082 -77.16059 1235 ft 129 kts 156°
2026-05-05 01:10 -11.95887 -77.15680 1113 ft 126 kts 156°
2026-05-05 01:11 -11.96718 -77.15290 924 ft 131 kts 156°
2026-05-05 01:11 -11.97541 -77.14902 868 ft 127 kts 155°
2026-05-05 01:11 -11.98336 -77.14507 650 ft 125 kts 155°
2026-05-05 01:11 -11.99136 -77.14109 495 ft 126 kts 157°
2026-05-05 01:12 -11.99947 -77.13724 360 ft 127 kts 157°
2026-05-05 01:12 -12.00752 -77.13329 165 ft 125 kts 157°
2026-05-05 01:12 -12.01540 -77.12941 50 ft 118 kts 156°
2026-05-05 01:12 -12.02177 -77.12633 45 ft 79 kts 155°
2026-05-05 01:13 -12.02502 -77.12472 57 ft 28 kts 154°
2026-05-05 01:13 -12.02617 -77.12409 62 ft 18 kts 145°
2026-05-05 01:13 -12.02731 -77.12288 65 ft 28 kts 124°
2026-05-05 01:13 -12.02709 -77.12194 67 ft 20 kts 346°
2026-05-05 01:14 -12.02564 -77.12262 67 ft 29 kts 334°
2026-05-05 01:14 -12.02384 -77.12352 65 ft 28 kts 334°
2026-05-05 01:14 -12.02236 -77.12413 64 ft 21 kts
2026-05-05 01:14 -12.02155 -77.12296 65 ft 20 kts 64°
2026-05-05 01:15 -12.02090 -77.12158 69 ft 21 kts 64°
2026-05-05 01:15 -12.02025 -77.12023 73 ft 20 kts 64°
2026-05-05 01:15 -12.01965 -77.11894 77 ft 19 kts 63°
2026-05-05 01:15 -12.01914 -77.11782 77 ft 13 kts 78°
2026-05-05 01:16 -12.01973 -77.11712 77 ft 14 kts 154°
2026-05-05 01:16 -12.02074 -77.11663 77 ft 16 kts 154°
2026-05-05 01:16 -12.02188 -77.11606 77 ft 19 kts 154°
2026-05-05 01:16 -12.02311 -77.11547 82 ft 18 kts 156°
2026-05-05 01:17 -12.02411 -77.11496 89 ft 14 kts 155°
2026-05-05 01:17 -12.02508 -77.11449 92 ft 18 kts 153°
2026-05-05 01:17 -12.02649 -77.11379 92 ft 20 kts 154°
2026-05-05 01:17 -12.02767 -77.11320 96 ft 16 kts 153°
2026-05-05 01:18 -12.02857 -77.11308 97 ft 13 kts 230°
2026-05-05 01:18 -12.02895 -77.11334 97 ft 9 kts 170°
2026-05-05 01:18 -12.02983 -77.11292 97 ft 14 kts 154°
2026-05-05 01:18 -12.03076 -77.11246 97 ft 12 kts 156°
2026-05-05 01:19 -12.03144 -77.11212 97 ft 4 kts 166°
2026-05-05 01:19 -12.03154 -77.11222 97 ft 2 kts 244°
2026-05-05 01:19 -12.03162 -77.11239 97 ft 3 kts 244°
2026-05-05 01:19 -12.03172 -77.11259 97 ft 0 kts 244°
2026-05-05 01:20 -12.03172 -77.11260 97 ft 0 kts 244°
2026-05-05 01:20 -12.03173 -77.11261 97 ft 0 kts 244°